Regional Weather Roundup
Issued by NWS State College, PA

Home | Current Version | Previous Version | Graphics & Text | Print | Product List | Glossary On
Versions: 1 2 3 4 5 6 7 8 9 10 11 12 13 14 15 16 17 18 19 20 21 22 23 24 25 26 27 28 29 30 31 32 33 34 35 36 37 38 39 40 41 42 43 44 45 46 47 48 49 50
000
ASUS41 KCTP 282010
RWRCTP

REGIONAL WEATHER ROUNDUP
NATIONAL WEATHER SERVICE STATE COLLEGE PA
400 PM EDT TUE MAR 28 2017

Note: "fair" indicates few or no clouds below 12,000 feet with no
significant weather and/or obstructions to visibility.

* = STATION THAT DOES NOT REPORT PRECIPITATION /E.G. RAIN...SNOW...ETC/
    THUNDER OR FOG.

PAZ002>004-007>009-013>016-020>023-029>032-282100-
WESTERN PENNSYLVANIA

CITY           SKY/WX    TMP DP  RH WIND       PRES   REMARKS
ERIE           CLOUDY    44  41  89 NE8       30.00R FOG
MEADVILLE      CLOUDY    47  43  86 NW7       29.98R
FRANKLIN*      CLOUDY    54  46  76 NW8       29.94S
NEW CASTLE     CLOUDY    53  49  86 NW14      29.97R
BEAVER COUNTY  CLOUDY    54  48  82 N10G16    29.94R
BUTLER*        CLOUDY    55  48  76 N8        29.94R
PITTSBURGH INT CLOUDY    56  53  90 NW10      29.93R
PITTSBURGH     CLOUDY    56  50  80 NW14      29.91R
INDIANA*       PTSUNNY   59  57  94 NW5       29.91S
LATROBE        CLOUDY    57  57 100 NW7       29.89S
WASHINGTON CO* CLOUDY    55  52  88 NW12G21   29.95R
$$

PAZ004>006-010>012-017>019-024>028-033>037-041-042-045-046-049>053-282100-
CENTRAL PENNSYLVANIA

CITY           SKY/WX    TMP DP  RH WIND       PRES   REMARKS
BRADFORD       CLOUDY    52  49  89 N7        29.91R
DUBOIS         CLOUDY    57  50  77 NW7       29.88S
CLEARFIELD       N/A    N/A N/A N/A MISG      29.88R
JOHNSTOWN      LGT RAIN  54  53  97 W9        29.88S FOG
ALTOONA        CLOUDY    60  56  86 CALM      29.87R
STATE COLLEGE  CLOUDY    55  54  94 CALM      29.87R
WILLIAMSPORT   CLOUDY    57  54  89 W6        29.85S FOG
SELINSGROVE    CLOUDY    58  55  90 N5        29.85S
FT INDIANTOWN  LGT RAIN  52  52 100 CALM      29.85S
CAPITAL CITY   CLOUDY    56  52  86 E3        29.85S
HARRISBURG     LGT RAIN  55  53  93 CALM      29.84S
YORK           LGT RAIN  57  55  93 CALM      29.84S
$$

PAZ038>040-043-044-047-048-054-055-060>062-067>071-282100-
EASTERN PENNSYLVANIA

CITY           SKY/WX    TMP DP  RH WIND       PRES   REMARKS
SCRANTON       CLOUDY    52  50  93 VRB3      29.83S
MOUNT POCONO   LGT RAIN  46  46 100 SE7       29.83S VSB 1/4
ALLENTOWN      LGT RAIN  51  47  86 E3        29.86R
QUAKERTOWN*    CLOUDY    50  50 100 CALM      29.86F
READING        LGT RAIN  51  51 100 N5        29.85S
LANCASTER      LGT RAIN  55  54  96 N5        29.84F
COATESVILLE    CLOUDY    52  52 100 N5        29.85S FOG
POTTSTOWN      LGT RAIN  50  49  96 NE3       29.86F FOG
BLUE BELL      CLOUDY    48  48 100 CALM      29.85S
DOYLESTOWN     LGT RAIN  48  48 100 NE5       29.85R
WILLOW GROVE   NOT AVBL
NORTH PHILA    CLOUDY    52  49  89 NE6       29.87R
PHILADELPHIA   CLOUDY    54  50  86 NE8       29.84F
$$



USA.gov is the U.S. government's official web portal to all federal, state and local government web resources and services.